User: anonymous   Login
Location: Unspecified
(0.0000°N, 0.0000°E)
Time: 01:00:18
(UTC+00:00)
Language:

GOES 1 - Orbit

View from above orbital plane
View from above orbital plane
View from above satellite
View from above satellite

Ground track
Ground track

The orbit data is extracted from the following two-line orbital elements,

1 08366U 75100A   21023.57273072  .00000051  00000-0  00000-0 0  9993
2 08366   9.4694 302.2141 0003292 345.8188 278.1326  1.00242179165303
Epoch (UTC): 23 January 2021 13:44:43
Eccentricity: 0.0003292
inclination: 9.4694°
perigee height: 35780 km
apogee height: 35808 km
right ascension of ascending node: 302.2141°
argument of perigee: 345.8188°
revolutions per day: 1.00242179
mean anomaly at epoch: 278.1326°
orbit number at epoch: 16530

The dashed part of the orbit path shows where the satellite is in the earth's shadow,  

DLR